Regional Weather Roundup
Issued by NWS

Home | Current Version | Previous Version | Graphics & Text | Print | Product List | Glossary On
Versions: 1 2 3 4 5 6 7 8 9 10 11 12 13 14 15 16 17 18 19 20 21 22 23 24 25 26 27 28 29 30 31 32 33 34 35 36 37 38 39 40 41 42 43 44 45 46 47 48 49 50
169
ASUS45 KSLC 152210
RWRUT

UTAH REGIONAL WEATHER ROUNDUP
NATIONAL WEATHER SERVICE SALT LAKE CITY UT
300 PM MST FRI DEC 15 2017

UTZ001>011-023>025-152300-

NORTHERN UTAH

CITY           SKY/WX    TMP DP  RH WIND       PRES   REMARKS
BRIGHAM CITY   MOSUNNY   38  26  61 CALM      30.16F
HILL AFB       MOSUNNY   40  23  49 NW6       30.13F
LOGAN          PTSUNNY   35  23  61 S3        30.15F
OGDEN          MOSUNNY   40  23  50 W5        30.14F
SALT LAKE CITY PTSUNNY   42  25  50 N7        30.13F
TOOELE VALLEY  PTSUNNY   34  28  80 CALM      30.15F
WENDOVER       PTSUNNY   31  23  72 E5        30.15F WCI  26
HEBER CITY       N/A     41  12  30 CALM      30.10F
WEST JORDAN    PTSUNNY   40  22  48 E3        30.13F

$$

UTZ011>015-024>027-152300-

CENTRAL/NORTHEAST UTAH

CITY           SKY/WX    TMP DP  RH WIND       PRES   REMARKS
PROVO AIRPORT  PTSUNNY   36  25  64 CALM      30.14F
MOAB/CANYONLAN SUNNY     47  13  25 VRB5      30.19F
DELTA          SUNNY     41  18  38 CALM      30.13F
PRICE          SUNNY     41  16  36 VRB5      30.18F
ROOSEVELT      CLOUDY    37  18  44 CALM      30.17F
VERNAL         CLOUDY    41  17  38 CALM      30.15F

$$

UTZ013>016-019>022-027-152300-

SOUTHERN UTAH

CITY           SKY/WX    TMP DP  RH WIND       PRES   REMARKS
BRYCE CANYON   SUNNY     46  -3  13 S13       30.19F
CEDAR CITY     SUNNY     55   4  12 SW10      30.14F
MILFORD        SUNNY     50  13  22 S16       30.11F
ST GEORGE      PTCLDY    52  15  23 CALM      30.17F
HANKSVILLE     SUNNY     45  14  29 N7        30.23F
BLANDING         N/A     43   7  22 S3        30.27F

$$

REGIONAL REPORTS     COLORADO/ARIZONA

CITY           SKY/WX    TMP DP  RH WIND       PRES   REMARKS
CRAIG, CO      SUNNY     39  12  33 NE7       30.15F WCI  34
GRAND JUNCTION SUNNY     45  11  25 W6        30.21F
RIFLE, CO      SUNNY     43   5  20 CALM      30.20F
MONTROSE, CO   SUNNY     41   8  25 CALM      30.21F
CORTEZ, CO     SUNNY     44  11  26 SW10      30.19F
COLORADO CITY    N/A     57   5  12 SE3       30.20F
PAGE, AZ       SUNNY     48  15  26 NE6       30.18F
GRAND CANYON   SUNNY     57 -17   4 NW8       30.20F
KINGMAN, AZ    SUNNY     65   1   8 SW16      30.14F
FLAGSTAFF, AZ  SUNNY     55 -18   4 E3        30.20F

$$

REGIONAL REPORTS    NEVADA/IDAHO/WYOMING

CITY           SKY/WX    TMP DP  RH WIND       PRES   REMARKS
LAS VEGAS, NV  MOSUNNY   60  16  18 VRB3      30.12F
ELY, NY        MOSUNNY   57  -6   7 S3        30.11F
ELKO, NV       PTSUNNY   37  23  56 SW3       30.10F
POCATELLO, ID  CLOUDY    24  21  88 NE8       30.11F WCI  15
BURLEY, ID     PTSUNNY   36  26  67 E3        30.08F
FORT BRIDGER,    N/A     46  -3  13 W21G28    30.11F
EVANSTON, WY   CLOUDY    43   3  19 SW17      30.10F
ROCK SPRINGS,  CLOUDY    44   0  16 W25       30.05F

$$




USA.gov is the U.S. government's official web portal to all federal, state and local government web resources and services.